EHI
3 3 4 3 2 2 1 0 0 0 0 0 1 2 3 2 1 1 1 2 3 4 3 4 6 6 5 4 5 6 6 7 9 9 9 9 9 6 4 4 4 5 6 6 6 5 3 3 3
4 4 4 3 3 2 1 0 0 0 0 0 1 2 3 3 3 3 2 2 4 4 3 3 6 8 7 6 6 5 4 5 8 10 10 10 8 6 4 4 5 5 4 4 4 3 3 3 3
5 5 5 3 2 1 0 0 0 0 0 0 1 2 3 3 3 3 3 4 4 3 3 4 8 9 7 6 5 4 3 4 6 8 9 8 6 4 4 4 4 3 1 1 2 2 3 2 2
6 7 6 4 2 1 0 0 0 0 0 1 1 1 1 3 4 3 3 4 4 3 3 5 9 9 6 5 5 4 3 4 4 5 4 4 2 2 3 3 2 1 0 0 1 2 2 2 1
6 5 4 3 2 1 0 0 0 0 0 1 2 1 1 4 5 4 2 3 3 3 3 4 9 9 7 5 5 5 4 4 5 4 2 1 1 1 1 1 1 0 0 0 0 0 1 1 1
7 5 3 2 1 0 0 0 0 0 0 2 2 1 1 5 7 4 2 2 3 3 2 3 7 9 8 7 6 6 6 6 6 5 4 2 1 1 0 0 0 0 1 1 0 0 0 0 0
11 6 3 2 1 0 0 0 0 0 0 2 2 1 1 4 6 5 3 3 3 3 2 2 3 5 7 8 7 6 6 5 5 5 5 5 4 3 2 1 1 1 1 1 1 1 0 0 0
10 6 2 1 0 0 0 0 0 1 2 3 3 2 1 3 5 5 5 4 2 2 2 1 1 2 4 6 7 7 6 4 3 5 8 8 6 3 3 3 3 3 3 3 3 3 2 2 1
6 3 1 0 0 1 1 0 1 3 5 5 4 3 3 5 7 6 5 5 4 2 1 1 1 1 2 3 5 5 4 3 3 4 8 8 4 2 1 2 3 5 6 7 6 7 7 6 5
2 1 0 0 1 2 1 0 1 4 6 6 6 6 7 9 11 9 7 6 5 4 2 2 2 1 1 1 1 2 1 1 1 2 3 3 1 0 0 1 2 5 7 7 7 8 9 8 6
1 0 0 0 2 2 2 1 2 4 5 4 5 8 11 14 15 13 10 7 6 5 3 3 3 2 1 1 0 0 0 0 0 0 0 0 0 0 0 0 1 2 4 4 3 4 5 4 4
0 0 0 1 1 2 3 2 3 4 4 5 6 9 13 15 16 15 12 8 7 6 5 4 3 2 2 1 0 0 0 0 0 0 0 0 0 0 0 0 0 0 1 1 0 0 1 1 1
0 0 0 1 2 3 3 3 4 5 6 7 9 11 12 13 14 14 12 9 8 7 6 4 2 1 1 1 0 0 0 0 0 0 0 0 0 0 0 0 0 0 0 0 0 0 0 0 0
0 0 0 1 2 3 3 3 4 6 8 10 11 10 10 11 12 12 12 11 8 6 4 2 0 0 0 0 0 0 0 0 0 0 0 0 0 0 0 0 0 0 0 0 0 0 0 0 1
1 1 1 1 3 3 1 1 4 7 10 11 9 9 9 10 11 12 12 11 8 5 4 2 1 1 1 1 1 0 0 0 0 0 0 0 0 0 0 0 0 0 0 0 0 0 0 1 2
0 0 1 1 2 2 1 1 3 7 10 9 7 8 9 9 10 12 12 10 7 6 6 5 3 2 2 3 2 1 0 0 0 0 1 1 1 1 0 0 0 0 0 0 0 0 0 1 2
1 0 0 1 1 1 0 1 4 7 9 9 8 9 10 11 13 14 12 9 7 7 7 6 4 3 4 4 3 2 0 0 0 1 2 2 2 2 1 0 0 0 0 0 1 0 0 1 1
1 0 0 1 1 1 0 2 5 8 10 10 10 12 13 14 14 13 11 9 7 7 6 5 4 4 4 5 5 4 1 1 1 1 2 3 3 2 1 0 0 0 0 0 0 0 0 0 0
1 0 0 1 1 1 1 3 6 9 11 11 13 15 16 15 14 11 9 9 9 8 7 6 5 4 4 5 5 4 2 1 1 2 3 4 4 3 1 0 0 0 0 0 0 0 0 0 0
0 0 0 0 0 1 1 2 3 7 10 12 16 19 19 18 15 11 10 10 11 10 10 10 8 5 4 5 5 4 3 2 2 3 4 5 5 3 2 1 0 0 0 0 0 0 0 0 0
0 0 0 0 0 1 1 1 2 4 7 11 15 19 20 19 16 13 11 11 12 13 14 14 11 6 5 5 5 5 6 5 4 4 5 5 4 3 3 2 0 0 0 0 0 0 0 0 0
0 0 0 0 0 0 0 0 1 3 6 8 12 17 19 18 15 13 12 11 12 14 16 15 12 9 7 7 7 8 8 8 6 4 4 4 3 3 3 1 0 0 0 0 0 0 0 0 0
0 0 0 0 0 0 0 0 0 2 5 8 11 16 19 19 17 14 12 11 12 14 15 15 13 11 10 9 8 8 8 7 6 5 4 3 3 3 3 1 0 0 0 0 0 0 0 0 0
0 0 0 0 0 0 0 0 0 1 3 7 11 16 20 21 19 15 13 12 13 14 16 18 16 12 9 8 6 6 5 5 4 4 3 3 3 3 3 2 1 0 0 0 0 0 0 0 0
0 0 0 0 0 0 0 1 1 2 3 6 8 11 16 20 19 16 15 15 14 16 20 22 20 14 8 6 4 4 4 3 3 3 3 3 3 3 3 3 1 0 0 0 0 1 1 1 0
0 0 0 0 0 0 0 1 2 2 4 6 7 8 13 18 18 16 16 15 16 19 23 25 22 18 13 9 6 5 4 4 3 3 3 3 3 3 3 3 2 1 0 0 1 2 3 2 1
0 0 0 0 0 0 0 0 1 2 4 6 6 7 11 14 16 16 15 14 15 19 24 24 23 20 17 13 10 7 6 6 5 5 4 3 3 3 3 3 3 2 1 1 2 4 4 3 2
0 0 0 0 0 0 0 0 0 0 2 3 4 6 9 12 14 16 16 15 15 18 22 23 21 20 18 15 11 9 8 8 9 8 6 4 3 3 3 3 3 3 2 3 4 5 4 3 2
0 0 0 0 0 0 0 0 0 0 1 2 3 4 8 11 14 16 17 18 19 21 23 22 20 18 16 13 11 9 9 10 11 9 7 5 3 3 3 3 3 3 4 5 6 6 5 4 4
0 0 0 0 0 0 1 1 1 1 2 2 3 4 7 12 16 17 17 20 23 24 25 23 20 17 14 11 9 10 10 11 11 10 7 6 4 2 3 3 3 4 5 6 7 6 6 5 5
Wind_Speed
9 6 3 1 1 2 1 0 3 4 5 6 9 10 9 6 5 6 3 9 11 9 7 10 12 12 12 12 11 10 10 11 11 12 12 12 12 12 12 12 12 12 12 11 11 10 10 10 9
6 5 2 0 2 2 1 2 6 6 8 9 10 10 9 7 7 8 5 9 11 10 7 9 12 12 12 11 11 10 10 11 12 12 12 12 11 11 11 12 12 12 11 11 10 10 9 8 8
5 3 0 1 1 1 1 3 7 8 7 6 6 6 6 6 7 6 7 12 10 8 7 9 13 12 12 11 11 10 11 11 12 12 12 11 11 11 11 11 11 11 11 10 9 9 8 7 6
2 1 1 1 1 3 3 4 7 9 7 7 8 7 5 4 5 8 12 13 11 8 7 9 13 12 12 12 11 11 11 11 12 12 11 11 10 11 11 11 11 10 10 9 8 8 7 6 5
1 1 1 0 1 1 4 6 6 7 5 7 9 8 4 3 10 12 13 12 11 8 7 8 13 12 12 12 12 11 11 11 11 11 11 10 10 10 10 10 10 9 9 8 8 7 6 4 4
1 1 1 0 1 3 4 6 8 10 10 9 9 7 4 5 10 12 11 10 10 9 7 7 12 12 12 12 11 11 10 10 10 10 10 10 10 9 10 9 9 9 8 8 7 6 5 4 4
1 1 1 2 2 3 4 5 8 9 9 7 8 7 4 5 8 10 10 9 9 8 7 6 6 8 11 12 11 10 10 9 9 9 9 9 9 9 9 9 9 8 8 7 7 6 5 5 4
3 1 1 1 4 3 4 3 6 9 7 9 6 7 6 7 9 10 9 8 8 7 7 6 5 5 5 6 10 10 10 9 9 8 9 9 8 8 8 8 8 8 8 7 7 6 6 5 4
1 0 2 3 4 4 5 7 5 7 9 5 5 6 9 12 12 10 8 6 6 7 5 6 6 5 5 5 7 7 8 8 7 6 8 6 3 3 4 6 8 8 8 7 7 6 5 4 4
2 2 5 4 5 6 7 8 6 7 9 8 8 9 12 12 12 11 10 9 7 7 6 5 6 6 5 5 4 3 3 3 3 2 3 2 2 2 4 6 8 8 8 7 6 6 5 3 2
4 5 3 2 5 7 7 6 5 9 7 9 13 13 12 11 10 10 9 8 8 7 7 6 6 6 5 3 3 2 2 2 2 3 2 2 2 1 2 1 3 4 5 3 3 3 2 2 2
2 5 3 2 4 7 6 5 5 7 9 12 14 14 12 11 9 9 9 8 7 7 6 5 6 6 5 4 3 3 2 2 2 2 3 2 1 1 1 1 1 1 1 2 2 1 2 3 3
3 4 2 3 4 6 8 7 7 8 12 13 14 13 12 10 8 7 8 8 8 7 6 6 5 5 4 4 3 3 3 3 2 2 2 3 2 2 2 1 2 2 2 2 2 2 3 3 3
4 3 1 2 4 5 9 6 7 9 13 13 14 12 10 10 9 8 7 7 7 6 6 5 5 4 4 3 3 3 3 3 2 2 3 3 3 2 2 2 2 2 2 2 3 3 3 2 2
3 2 3 1 2 4 7 4 7 12 13 13 12 12 11 9 9 9 8 8 7 6 6 6 6 4 4 3 3 3 2 3 2 2 3 3 3 3 2 2 1 1 1 2 1 2 1 1 1
4 3 1 4 1 3 6 4 7 12 14 12 11 11 10 8 9 8 8 7 7 6 6 5 6 5 4 3 2 2 2 3 2 2 2 3 3 3 2 2 1 1 0 0 1 0 0 0 0
4 1 2 4 2 2 4 4 7 10 12 12 11 10 9 7 7 7 8 8 7 7 7 5 5 5 4 3 2 2 2 2 1 1 2 2 3 3 2 2 1 1 1 0 1 0 1 0 1
2 1 2 3 3 1 1 3 5 9 11 11 11 10 10 9 8 8 8 8 7 6 6 6 5 4 3 2 2 2 1 1 0 1 1 2 2 3 2 1 1 1 1 0 0 1 0 0 0
4 3 3 4 3 0 2 4 7 9 9 10 10 10 10 9 8 8 9 9 7 6 6 6 5 4 3 2 2 2 1 1 1 1 1 1 2 2 2 1 1 1 1 1 1 1 1 0 0
3 2 3 4 3 0 2 3 5 9 13 14 14 12 11 9 8 8 8 8 8 8 7 6 6 5 4 3 2 2 2 1 1 1 1 1 1 1 2 2 1 1 1 1 1 1 1 0 1
4 6 5 4 1 1 1 1 2 3 5 8 11 12 12 13 12 10 10 9 8 8 8 7 6 5 4 3 2 2 2 2 1 1 0 0 1 1 2 2 2 1 1 1 0 1 2 1 1
4 7 5 3 1 2 1 1 5 3 4 7 8 10 11 11 10 10 10 10 10 9 8 6 6 5 4 4 4 4 3 2 2 1 1 0 1 1 2 2 2 1 1 1 1 1 1 2 0
5 5 3 3 2 1 2 2 6 2 5 7 9 11 12 12 12 11 11 11 10 9 7 7 6 5 4 4 4 4 3 2 1 1 1 1 0 1 1 1 1 1 1 1 1 0 1 1 1
4 4 3 4 4 1 3 2 5 4 8 7 7 9 11 11 11 10 8 8 7 7 7 7 7 5 4 4 4 4 4 3 2 2 1 1 0 0 0 1 1 1 1 1 1 1 1 1 1
3 5 3 4 3 4 2 2 6 6 7 9 9 9 10 9 9 9 9 8 8 8 7 7 7 6 5 5 4 4 4 4 4 3 2 2 1 0 1 1 1 1 1 1 1 0 1 1 1
3 7 7 4 4 3 2 3 6 5 2 6 6 6 7 8 8 9 10 9 9 9 8 8 8 6 6 5 4 4 4 3 2 3 2 2 2 2 1 1 1 1 1 1 1 0 1 0 1
4 3 6 6 2 1 3 3 5 2 3 4 5 6 5 8 8 8 8 9 9 10 9 9 9 7 6 6 5 3 3 3 3 3 2 2 2 2 1 1 1 1 1 1 1 0 1 0 1
6 6 5 5 4 2 3 3 4 3 2 3 4 5 4 5 7 7 7 8 8 8 8 8 8 8 6 6 5 4 3 4 4 3 2 2 2 1 2 1 1 1 1 1 1 0 0 0 1
2 2 4 4 5 6 3 6 5 7 5 6 5 6 5 5 7 6 5 5 6 6 6 6 6 6 5 5 4 4 3 3 3 3 3 2 2 2 2 2 2 1 1 1 1 0 0 0 1
4 4 6 4 3 4 4 6 2 5 6 6 5 5 5 5 5 5 5 5 6 5 6 5 5 5 5 5 4 3 2 2 2 2 2 2 2 2 2 2 2 2 2 2 2 2 1 1 1
Wind_Direction
168 165 167 190 34 35 351 123 114 88 66 59 75 83 81 67 96 125 145 138 137 143 146 139 133 130 129 129 126 127 129 131 130 128 127 128 129 128 129 133 136 137 135 134 133 131 129 128 129
165 173 186 45 60 49 320 104 97 97 119 110 85 83 77 71 87 113 129 143 141 142 144 140 137 135 134 131 128 126 129 133 132 131 131 132 133 132 130 131 134 136 135 134 133 133 131 131 133
176 198 174 41 70 174 163 117 114 106 109 103 90 67 73 100 115 130 147 145 140 137 140 145 141 138 137 135 132 127 128 132 134 134 135 135 136 137 135 135 135 135 135 135 134 137 139 143 148
171 150 46 53 223 221 154 130 122 110 83 78 96 76 65 103 126 139 142 142 137 138 144 150 143 141 141 139 138 133 130 132 135 136 138 139 140 139 139 139 139 139 140 139 139 142 148 157 167
153 99 64 247 228 163 114 107 121 112 97 94 97 99 81 70 119 134 140 141 141 146 150 152 146 144 143 143 143 140 136 135 135 137 140 141 143 144 145 144 144 145 145 146 147 150 155 163 164
46 60 62 57 102 95 98 106 105 103 111 109 104 106 108 130 129 141 140 141 143 148 151 151 150 146 144 144 147 146 145 143 142 143 145 145 144 144 147 149 151 153 156 157 159 161 162 168 169
140 87 224 174 132 113 127 115 115 124 128 128 124 104 120 141 140 139 135 133 136 140 145 152 153 152 151 150 151 152 151 150 151 152 153 154 154 154 157 161 162 164 166 168 171 174 180 187 190
182 161 267 166 131 137 141 107 122 123 116 125 120 125 153 163 144 131 128 128 131 138 144 149 150 150 153 156 160 161 160 157 156 154 154 157 162 165 170 172 175 178 180 184 188 193 197 202 209
168 81 238 194 148 149 136 109 103 98 106 107 97 124 146 143 135 129 123 124 140 146 154 152 154 156 153 163 167 165 164 163 162 161 163 161 164 172 181 187 188 190 191 195 202 209 214 215 229
173 196 229 198 154 147 138 128 128 106 102 101 100 112 128 136 140 140 143 147 152 159 166 166 164 164 164 167 157 167 167 161 159 160 162 157 165 191 195 201 201 203 203 208 216 224 231 235 245
196 214 236 161 147 137 135 135 123 120 126 144 143 142 140 142 144 148 153 156 158 162 164 168 168 167 166 159 159 163 155 153 161 166 163 160 162 184 192 187 208 212 211 218 225 234 234 234 237
235 246 230 181 147 138 141 133 113 129 154 152 147 145 143 146 148 152 154 152 150 149 154 157 159 154 157 155 161 160 157 162 168 176 176 165 162 167 179 183 192 193 203 209 218 225 236 246 250
232 262 230 166 143 133 126 127 119 123 134 136 139 142 147 148 148 150 144 138 137 142 146 147 143 141 143 140 157 156 163 167 175 173 176 164 161 178 182 182 186 201 206 211 217 227 233 240 242
255 270 190 117 110 124 128 131 118 140 140 140 143 148 150 146 146 143 137 134 137 138 140 138 135 134 134 136 144 153 159 159 162 171 178 172 168 175 175 181 191 209 211 211 211 224 226 234 216
306 342 4 12 116 140 116 103 143 152 144 145 151 150 149 148 145 150 152 143 146 143 136 140 137 134 131 136 149 147 152 149 156 176 183 175 168 171 170 176 195 219 223 212 214 229 215 215 214
350 31 356 283 144 151 114 170 176 156 149 151 153 152 152 155 155 153 149 144 146 142 137 144 139 134 135 130 130 138 144 145 165 176 175 180 172 163 159 161 188 206 195 170 187 193 170 295 258
16 20 275 293 276 154 127 192 185 164 154 155 154 154 153 156 156 154 152 151 151 149 145 145 139 143 147 139 132 128 128 134 164 165 171 185 177 163 152 164 192 172 136 137 215 122 149 229 272
224 233 278 283 290 2 144 186 174 169 160 157 157 157 159 165 170 162 157 156 154 151 144 145 143 145 143 132 109 90 92 112 133 154 171 171 170 163 154 163 183 141 116 58 60 133 116 179 250
192 199 237 258 258 150 218 185 177 170 165 162 163 163 165 172 171 162 157 154 155 154 150 154 150 152 142 136 138 134 152 169 154 167 158 158 158 156 153 158 156 142 151 183 147 137 76 349 52
188 193 249 276 276 172 232 218 188 173 180 175 170 170 170 169 167 168 162 159 162 166 164 162 164 163 165 168 165 161 148 152 149 134 122 142 141 149 148 142 157 173 145 94 67 97 89 321 95
227 199 206 214 326 5 107 333 243 208 174 174 174 173 172 174 173 174 171 171 171 172 171 171 173 169 170 160 132 111 78 55 49 46 66 204 153 139 125 138 142 150 137 155 174 135 141 186 295
228 227 205 192 129 276 153 228 275 209 188 180 180 176 178 178 175 177 173 174 178 179 172 167 163 159 164 152 142 140 143 152 189 183 186 210 133 129 140 135 142 144 135 158 211 158 155 139 224
213 207 170 150 135 31 10 120 278 207 200 202 187 182 183 178 176 180 178 177 178 175 170 165 156 154 155 151 153 151 149 161 158 139 134 155 144 160 153 140 140 149 163 188 197 115 134 148 165
163 75 47 52 71 21 248 156 268 226 204 195 193 186 184 178 176 177 174 163 164 166 166 162 154 160 158 155 159 159 156 151 139 148 155 170 204 244 212 151 153 166 180 196 200 200 178 189 178
89 92 45 3 7 258 257 164 248 255 198 180 182 187 184 177 169 168 166 166 165 168 171 166 160 167 169 161 164 168 167 160 166 176 178 172 166 204 251 210 190 194 203 198 189 161 237 206 189
199 142 154 186 214 268 313 233 258 278 189 158 158 163 165 166 170 171 174 174 173 176 177 170 168 173 176 173 176 178 176 171 180 180 171 180 190 201 205 201 202 204 183 191 166 154 245 212 215
155 173 166 138 155 185 261 271 302 7 65 92 121 134 154 167 167 170 175 178 179 181 181 178 175 175 177 179 172 178 181 177 180 177 166 173 197 196 197 200 197 215 203 195 157 159 248 241 235
151 154 99 114 147 218 263 247 236 235 185 127 130 141 152 156 164 169 176 182 185 184 179 175 174 176 177 177 177 175 185 184 182 169 177 190 203 199 171 175 179 189 198 185 142 145 276 227 275
120 100 110 125 155 157 211 263 223 193 179 157 159 154 151 152 155 153 151 156 162 162 159 162 169 173 176 177 176 178 182 186 183 180 192 198 194 177 168 174 173 178 184 184 155 202 36 148 278
158 162 139 147 217 162 161 262 289 165 155 147 143 143 139 136 141 143 147 153 153 157 156 158 164 168 174 169 165 174 177 178 186 197 204 191 182 185 187 176 171 188 195 197 192 208 225 210 236